Wind_Speed
5 4 4 5 4 3 8 9 9 8 5 5 6 6 5 4 5 6 8 9 9 8 9 9 9 9 8 8 8 9 10 11 9 7 4 4 4 4 4 4 4 4 4 4 4 4 4 4 4 4 4 4 5 5 6 7 7 8 8 8 8 8 8 8 8 9 9 8 8 9 9 9 9 10 10 10 10 10 9 9 9 9 10 10 11
5 4 3 4 4 5 8 9 8 8 7 7 7 5 5 3 4 6 8 10 10 9 9 10 9 8 8 8 8 9 11 11 11 8 5 3 3 2 3 3 4 4 4 4 4 4 3 3 3 3 3 4 4 5 6 6 7 7 8 8 9 9 9 8 8 8 8 8 8 8 9 9 9 9 9 10 10 10 10 9 9 10 10 11 12
4 3 3 5 6 6 8 9 8 6 7 8 8 5 5 4 4 8 9 10 10 9 10 9 8 7 8 8 8 9 10 11 11 10 6 4 4 3 2 3 4 4 4 4 4 4 4 4 5 5 5 5 4 5 5 6 7 7 7 8 8 9 9 9 8 8 8 7 8 8 9 9 9 9 9 9 10 10 10 10 10 11 11 11 12
4 3 3 4 7 8 8 9 7 6 7 8 9 6 6 6 8 11 10 10 11 9 8 9 8 7 8 8 7 9 9 10 11 10 7 5 5 4 4 4 4 5 5 5 5 6 5 5 5 6 6 5 5 4 5 5 6 7 7 8 8 8 8 9 9 9 9 8 8 9 9 10 10 10 10 10 10 10 11 11 12 12 12 12 12
3 3 4 5 7 8 8 9 7 6 8 9 8 7 7 9 10 11 10 11 11 9 8 9 8 7 8 7 7 8 8 9 10 9 8 7 7 6 6 6 5 5 5 6 7 7 7 7 7 7 7 6 5 4 4 5 5 6 7 8 8 8 8 9 9 9 9 9 9 10 10 10 10 10 11 10 11 11 11 12 12 12 12 12 12
3 3 4 4 6 8 8 8 7 7 8 8 7 6 9 11 11 11 11 11 12 10 9 9 7 6 7 6 6 6 6 8 8 8 8 7 7 7 7 7 6 6 6 7 8 8 8 8 8 8 7 6 4 3 3 4 5 6 6 7 8 8 8 9 9 9 9 9 10 10 10 10 10 10 10 10 11 11 11 12 12 12 12 11 11
2 2 4 4 5 7 8 8 9 8 8 9 8 7 9 10 10 11 11 11 11 10 10 8 7 6 5 6 6 5 6 7 6 7 7 6 6 6 6 6 7 7 7 7 7 8 8 8 9 9 7 5 3 2 2 3 4 6 6 6 7 7 7 8 8 8 9 9 10 9 9 9 10 10 10 10 10 11 11 11 11 11 11 11 11
2 2 3 4 5 7 9 9 9 9 9 10 10 8 9 9 10 11 10 11 11 10 9 7 6 6 5 6 6 5 6 6 6 6 6 6 6 6 6 6 6 7 7 6 7 8 8 9 9 9 9 7 4 3 2 2 3 4 5 6 7 7 7 7 8 8 8 8 8 8 8 9 9 9 9 10 10 10 10 10 11 11 11 11 11
2 2 3 5 6 7 8 9 9 10 9 9 10 9 8 9 10 10 9 10 11 9 8 7 7 6 6 6 6 6 6 5 5 5 5 5 5 5 6 7 7 6 6 6 7 7 7 8 8 8 9 8 6 4 3 3 3 4 5 6 7 7 7 7 7 7 7 7 7 7 8 8 9 9 9 9 10 10 10 10 11 11 11 12 12
2 2 3 4 5 6 8 8 9 10 9 7 9 9 8 8 9 10 10 9 9 8 7 6 6 7 7 7 6 6 6 6 5 5 5 6 6 5 6 6 6 6 6 6 6 6 6 7 6 7 7 7 6 5 4 4 4 5 6 7 7 7 7 7 7 6 6 7 7 8 8 8 9 9 9 10 10 10 10 11 11 11 12 12 12
2 2 2 3 4 5 7 9 9 9 9 9 10 9 9 9 9 10 10 9 8 7 7 6 7 8 8 8 7 7 7 6 6 6 6 6 6 5 5 6 5 5 5 5 5 5 6 6 5 6 6 6 5 5 5 5 5 5 6 7 7 7 7 7 7 6 7 7 7 8 8 9 9 10 10 10 10 10 10 11 11 11 12 12 12
3 2 2 3 4 5 8 9 9 9 9 11 11 9 9 9 9 9 9 9 8 7 6 7 8 8 9 9 9 9 8 7 6 6 6 6 6 5 4 5 5 4 4 4 3 4 5 5 5 5 5 5 5 5 5 4 5 5 6 6 6 6 6 6 6 6 6 7 7 8 9 9 9 9 9 10 10 11 11 11 12 12 12 12 12
2 2 2 3 4 5 7 8 7 8 9 10 11 10 9 9 9 9 9 9 8 7 7 7 8 9 9 9 9 9 8 7 6 5 5 5 5 4 4 4 4 3 3 2 1 2 3 4 4 3 4 4 4 4 4 4 4 5 5 5 5 5 5 5 5 6 7 7 8 8 9 9 9 10 10 11 11 11 11 12 12 12 12 13 13
1 1 1 1 2 3 5 6 6 7 8 9 9 10 10 10 9 9 9 9 8 8 8 7 8 8 8 9 9 8 7 6 6 5 5 5 5 5 5 4 4 3 3 2 2 2 2 1 1 1 2 3 3 4 4 4 4 4 5 5 5 5 6 6 6 7 8 8 9 9 10 11 11 12 12 12 12 12 13 13 13 13 14 14 14
2 1 0 0 0 1 3 4 5 6 7 7 8 9 9 9 9 8 9 9 9 8 6 6 7 7 8 8 8 7 6 6 6 6 6 6 5 5 5 5 5 4 4 4 3 3 2 1 1 0 1 1 2 3 4 4 5 5 5 6 6 7 7 7 8 8 9 10 11 12 12 13 13 13 13 14 14 15 15 15 15 15 15 15 15
3 2 1 1 1 0 2 3 4 5 6 6 7 8 8 8 9 8 8 8 9 8 6 6 6 7 7 7 7 6 4 5 6 6 7 6 6 6 6 5 5 5 4 5 5 4 4 3 3 2 2 2 2 3 5 5 6 6 6 7 8 8 9 10 10 11 12 12 13 13 14 14 14 14 15 15 15 15 15 15 15 15 15 15 16
4 3 2 2 2 1 1 2 3 4 4 4 6 7 7 8 8 8 8 8 8 8 7 6 5 5 6 6 7 5 4 5 6 5 5 6 6 5 5 5 5 4 4 5 5 5 6 5 5 4 4 4 4 5 6 6 7 7 8 9 10 11 11 12 12 13 13 14 14 14 14 15 15 15 15 15 15 15 15 15 15 15 16 16 16
5 4 3 2 2 2 2 2 2 3 3 3 5 6 6 7 8 8 8 7 6 7 8 7 5 5 5 4 4 5 6 6 6 5 5 5 6 5 5 4 5 5 4 5 6 6 7 6 6 6 6 6 6 6 7 8 9 9 10 11 11 12 13 13 13 13 14 14 14 14 14 14 14 14 14 15 15 15 16 16 16 17 17 17 17
7 6 5 3 3 3 4 3 2 2 3 3 4 5 5 6 7 8 8 6 6 7 7 8 6 5 4 3 4 5 5 5 6 7 7 7 8 7 6 5 5 5 5 5 6 7 7 6 6 6 7 7 8 9 9 10 10 10 11 11 12 12 13 13 13 13 13 14 14 14 14 14 14 15 15 15 16 16 17 17 18 18 19 19 19
8 7 6 5 5 4 4 4 3 2 2 3 3 4 5 5 5 6 7 6 6 5 6 7 7 6 5 4 4 5 5 6 6 7 7 7 8 7 6 6 5 5 4 5 6 6 6 7 7 8 9 9 10 10 10 9 10 10 11 12 12 12 12 12 13 13 13 13 14 14 14 15 15 16 17 17 18 18 19 19 19 19 19 19 19
9 9 8 7 6 5 5 5 5 3 3 3 3 4 5 5 4 4 6 6 5 5 5 5 6 6 5 5 6 6 7 8 8 8 7 6 7 6 5 5 5 5 4 5 7 6 7 8 8 9 10 10 10 9 9 9 9 10 11 11 12 12 12 12 13 13 13 14 14 15 15 16 17 18 18 19 19 19 20 20 20 20 20 20 20
11 10 9 8 7 6 6 6 6 5 4 4 3 4 5 5 4 4 5 6 6 5 5 5 5 6 6 7 8 8 9 9 9 9 9 8 8 7 5 3 4 5 6 6 7 7 8 8 9 10 10 10 9 9 9 9 10 10 11 11 11 12 12 12 12 13 14 15 15 16 17 18 19 19 20 20 20 20 21 21 21 21 21 21 21
12 11 10 9 8 7 7 7 7 6 5 5 4 4 5 5 5 4 4 5 6 5 5 5 6 7 7 7 8 8 8 9 9 9 9 9 7 7 6 5 5 6 7 7 7 8 9 9 10 10 9 9 9 9 9 9 10 10 10 11 11 11 12 12 13 14 15 16 17 19 19 20 20 21 21 21 21 21 22 22 22 23 23 23 22
14 13 11 10 10 9 9 8 8 8 7 6 6 6 6 6 6 5 4 4 5 5 6 6 6 7 7 8 9 9 9 10 11 11 11 10 9 10 10 9 8 8 7 7 7 8 9 9 9 9 8 8 8 8 9 9 9 9 9 10 11 11 12 13 14 16 17 18 19 20 21 21 22 22 22 23 23 23 23 24 24 24 25 24 24
16 14 12 12 11 10 10 10 9 9 8 8 7 7 7 7 7 6 5 4 4 5 5 6 6 6 7 8 9 10 11 11 12 12 12 11 10 11 11 9 9 9 7 7 8 8 8 9 8 7 7 7 7 7 7 7 8 8 9 10 11 12 13 14 16 18 19 20 21 21 22 23 23 24 24 25 25 25 26 26 26 26 26 26 26
17 17 15 13 13 12 11 11 10 10 10 10 9 8 8 8 8 8 7 6 5 5 5 6 6 7 7 8 9 10 11 11 11 11 11 11 9 9 9 8 8 8 7 7 8 8 8 7 6 6 5 5 5 5 6 7 8 9 10 10 11 13 14 15 17 18 20 21 22 23 24 25 26 26 27 27 28 28 28 27 27 27 27 27 27
19 19 17 16 14 13 13 12 12 11 11 10 10 10 9 9 9 9 8 7 7 6 5 6 6 7 7 7 8 9 10 10 10 9 8 9 8 8 8 7 8 8 7 7 7 6 6 5 4 4 4 4 4 5 6 7 7 9 10 11 12 14 15 17 18 20 21 23 24 25 27 28 29 30 30 30 30 30 30 30 29 29 29 28 29
20 20 19 18 17 15 14 13 13 12 12 12 11 11 11 10 10 10 10 9 8 8 7 6 6 6 6 6 6 7 7 8 8 7 7 7 6 5 5 5 6 7 7 6 5 5 5 5 3 3 3 4 5 6 7 8 8 9 10 12 14 15 17 19 21 23 25 26 28 29 30 31 32 33 33 33 33 33 33 33 33 32 31 31 31
21 21 21 20 19 17 16 15 14 13 13 13 12 13 12 12 11 11 12 11 10 10 9 8 7 7 7 6 6 5 5 6 6 5 5 4 4 3 2 2 3 4 6 6 4 4 5 6 5 4 4 5 7 8 9 10 11 13 14 15 17 18 20 22 23 26 27 29 31 32 34 34 35 35 35 35 36 35 36 36 35 35 34 34 33
22 21 22 22 21 19 18 16 15 15 14 14 14 14 14 14 13 13 13 13 12 11 11 10 9 8 8 7 6 6 5 4 4 4 3 2 1 1 0 1 1 2 4 6 7 6 5 6 8 7 6 7 10 11 12 14 15 17 19 20 22 23 24 25 27 28 30 32 34 35 37 37 37 37 36 36 35 35 35 35 36 36 35 35 35
24 23 23 22 21 20 18 17 17 16 16 16 16 16 15 15 15 14 14 14 14 13 13 12 11 10 10 8 8 7 6 5 4 4 3 2 2 2 2 3 3 3 3 5 7 9 9 10 10 12 12 11 12 14 16 17 19 20 22 24 25 27 29 30 31 32 33 35 36 37 38 38 38 37 36 36 35 36 36 36 36 36 36 36 36
25 24 23 22 21 20 19 18 18 17 17 17 17 17 16 16 16 15 15 15 15 15 14 14 13 12 12 11 10 9 8 7 6 5 5 5 5 5 5 5 6 6 6 7 7 8 11 13 13 15 17 17 17 18 19 20 22 24 25 27 28 30 31 32 34 35 36 36 37 37 37 37 37 37 37 37 37 38 38 39 40 40 40 39 38
25 24 24 23 22 21 19 19 19 18 18 18 18 18 17 17 17 17 17 16 16 16 16 15 14 14 14 13 12 11 10 9 8 7 7 7 8 8 8 8 8 9 9 10 10 9 11 13 15 16 18 19 20 21 23 24 25 27 29 31 32 33 33 34 35 35 36 35 34 33 33 34 35 36 37 38 39 40 41 41 42 43 43 43 42
26 24 23 24 23 22 21 20 19 18 18 17 18 18 18 17 17 17 18 17 17 17 17 17 16 16 16 15 15 14 13 11 10 10 10 9 10 10 10 10 11 11 12 13 13 13 13 14 16 16 17 19 21 22 24 26 27 29 30 31 33 34 35 35 35 35 34 33 31 31 31 32 34 35 37 38 39 40 41 42 43 44 43 43 42
26 24 23 23 23 22 21 21 19 18 18 17 17 18 18 17 16 17 19 19 19 19 19 19 19 19 18 17 16 16 15 14 13 13 12 11 12 12 12 13 13 14 15 15 15 16 16 16 17 18 19 20 21 22 24 26 27 29 30 31 32 33 34 34 33 33 33 33 34 34 35 35 35 36 37 39 41 42 43 44 44 44 43 42 42
25 24 24 24 23 22 22 21 19 18 17 16 17 18 17 17 16 17 19 19 20 21 21 21 21 20 19 18 18 18 18 16 16 15 15 14 14 15 15 15 16 16 17 17 17 17 17 17 17 18 20 20 21 22 24 25 27 30 31 31 31 30 29 29 30 31 32 34 36 37 37 36 37 37 39 40 41 42 43 44 43 43 44 44 44
25 24 24 24 23 22 22 21 19 18 17 16 17 17 17 16 16 17 19 20 20 22 22 22 22 22 21 20 20 20 19 18 17 17 17 16 16 17 17 17 18 18 18 18 18 19 19 19 19 19 20 21 22 22 23 24 25 26 27 27 27 27 28 29 30 33 35 36 37 36 36 37 37 37 38 38 39 39 40 41 42 43 44 45 45
25 24 24 24 23 22 21 20 19 18 17 17 17 17 16 16 16 17 18 19 20 22 23 24 23 23 23 22 22 21 21 20 19 19 18 18 18 18 19 19 20 20 20 19 19 20 21 21 21 21 20 20 20 18 18 20 21 22 23 24 26 28 30 32 33 35 36 36 36 36 35 35 35 35 34 34 35 35 37 39 40 42 43 44 45
26 25 24 24 23 22 21 20 19 18 18 18 17 17 17 17 16 16 18 19 19 21 22 24 24 24 23 23 23 23 22 22 21 21 20 20 20 20 20 20 20 20 20 20 21 21 21 21 20 19 17 15 13 13 14 17 19 21 23 26 28 30 32 34 35 35 35 35 36 36 35 34 34 33 32 33 33 34 36 38 40 40 40 41 42
26 25 24 24 23 23 21 21 20 20 19 19 19 18 17 17 16 15 16 18 18 20 21 23 24 24 23 24 24 25 24 24 23 22 22 21 21 21 21 21 20 20 20 20 21 21 21 20 18 15 11 9 9 11 15 20 22 23 24 27 29 31 33 35 36 36 35 34 34 36 36 35 33 32 33 33 34 36 38 41 42 40 38 36 36
26 26 25 25 24 23 22 21 21 21 20 20 20 19 18 17 17 15 16 17 18 19 20 22 23 24 23 23 24 25 26 25 24 24 23 23 22 21 20 20 20 20 19 19 19 19 20 19 16 12 8 8 11 13 16 21 25 26 27 29 31 32 34 36 37 38 36 34 33 33 34 35 34 34 35 35 36 38 41 44 43 40 37 34 33
27 27 27 26 25 23 23 23 22 22 22 21 20 19 18 18 17 16 16 17 18 19 20 21 23 23 22 22 23 24 25 25 25 24 24 24 22 19 19 19 19 19 19 19 18 18 18 16 12 9 8 10 13 15 17 21 26 28 29 31 33 34 35 36 36 38 39 37 34 32 32 35 37 37 38 38 39 42 45 46 45 41 37 34 32
27 28 28 27 26 24 23 23 23 23 22 22 21 19 18 19 19 18 17 16 18 19 19 20 22 22 22 22 23 23 23 23 23 23 23 22 20 18 18 19 20 20 19 19 19 18 16 12 9 8 10 12 14 17 19 22 26 29 31 33 35 37 37 37 36 37 40 40 37 34 33 35 39 41 42 43 43 43 45 45 43 40 37 33 30
28 29 29 28 27 26 25 24 24 24 23 23 21 19 19 20 20 20 19 18 18 19 19 20 21 22 23 23 23 23 22 21 21 22 22 21 19 18 18 19 20 21 21 21 21 19 16 12 10 10 13 15 17 18 20 22 26 29 32 34 37 38 39 39 38 38 40 40 38 37 35 37 41 45 46 48 49 49 49 48 43 38 35 33 31
28 29 29 28 28 28 27 26 25 24 24 24 22 19 19 20 21 22 22 20 19 19 19 20 20 22 23 24 24 24 23 21 21 22 22 21 20 19 19 21 22 22 22 21 20 18 15 14 13 12 14 18 20 20 22 24 27 30 34 36 38 40 41 41 41 40 39 37 37 37 37 38 42 47 49 51 53 54 55 53 48 41 36 33 32
29 29 28 28 28 28 27 27 26 25 25 25 23 20 20 21 21 23 24 23 22 21 21 21 21 22 23 24 25 25 24 23 22 22 22 21 21 21 21 23 24 23 23 22 20 18 16 16 16 15 16 20 22 23 25 27 30 33 36 38 40 42 43 43 43 40 37 35 35 38 39 40 44 48 50 52 54 55 57 56 50 45 40 36 33
29 29 28 28 28 27 27 28 27 26 25 25 24 21 21 21 22 23 25 26 25 24 23 22 22 22 23 25 25 25 25 24 22 22 22 22 24 24 24 24 24 24 24 23 21 19 18 18 18 18 20 22 23 25 28 31 33 35 37 38 40 42 43 43 42 40 37 34 35 39 41 42 45 49 52 53 54 54 56 56 53 49 46 43 39
30 29 29 29 29 28 28 28 28 27 26 26 25 22 21 22 23 24 26 27 27 27 25 24 23 23 24 25 26 26 26 25 23 23 22 23 25 27 27 26 25 24 23 22 21 20 20 20 20 21 23 24 25 27 30 32 35 37 38 39 40 41 41 41 41 41 40 37 36 39 43 44 47 50 52 53 54 54 55 56 55 53 51 49 46
30 30 30 30 30 29 29 28 28 28 27 27 25 23 22 22 24 26 26 27 28 28 27 27 26 25 26 26 26 27 28 27 25 24 24 25 27 28 29 28 26 25 24 23 22 22 21 21 21 23 25 26 27 29 31 33 36 38 40 40 39 40 41 41 40 39 39 38 37 39 43 46 48 51 53 54 54 54 55 56 55 54 53 52 50
30 30 30 30 30 30 29 29 29 29 28 27 26 24 23 24 25 26 27 28 29 29 28 28 28 28 28 27 27 28 29 28 27 26 26 27 28 29 30 29 28 26 24 24 24 25 24 24 24 25 26 28 29 31 33 36 38 40 40 39 39 41 42 42 40 37 35 37 38 40 42 45 48 50 53 54 53 53 55 56 54 53 52 52 51
29 29 29 30 30 31 30 30 30 29 29 29 28 26 25 25 26 27 29 30 30 30 29 29 29 30 29 29 28 28 29 29 29 29 28 29 29 30 30 29 28 27 25 25 25 26 26 27 28 30 30 29 30 33 35 38 40 40 39 38 39 42 43 42 39 36 33 34 37 40 42 45 47 49 52 55 56 55 55 54 53 52 50 49 49
Wind_Direction
114 99 70 74 56 53 77 77 78 80 85 92 95 101 103 113 141 145 125 114 114 109 108 112 104 98 97 89 80 75 70 67 64 67 81 100 106 98 88 79 67 61 62 66 66 66 70 77 79 76 72 67 61 60 60 56 53 52 49 46 48 48 47 47 48 49 49 49 48 46 44 41 37 34 30 27 25 22 19 15 11 7 4 359 354
112 110 103 95 79 45 60 74 75 80 90 86 81 92 103 114 138 128 107 101 110 112 107 105 96 91 93 88 81 75 72 71 67 62 67 77 83 92 74 59 51 43 37 34 37 36 28 23 24 23 27 37 42 45 47 49 46 42 39 38 38 38 41 43 43 44 44 43 41 41 39 37 33 29 25 22 18 14 11 8 5 1 358 354 351
106 112 119 107 95 66 60 72 70 79 98 91 82 88 103 109 98 92 87 85 89 97 102 102 98 92 88 85 80 77 76 77 70 59 62 65 60 64 50 38 36 31 21 10 6 2 357 352 355 356 355 1 9 21 31 36 37 35 33 32 31 32 37 40 38 36 35 33 31 31 30 28 26 22 18 15 12 9 4 0 357 355 351 349 347
98 84 68 72 76 73 69 68 61 67 79 78 79 87 98 90 76 73 77 86 88 95 101 98 95 90 86 85 76 70 71 76 73 64 60 54 50 44 29 24 19 17 11 3 357 349 345 342 342 341 336 336 343 357 12 20 24 28 28 25 27 30 31 33 33 29 27 25 22 21 20 18 15 13 10 7 4 1 357 353 351 349 346 345 346
92 71 61 53 59 69 75 70 60 55 54 57 71 90 91 80 75 73 75 87 95 101 101 93 90 84 80 82 77 72 70 71 72 67 60 53 48 40 33 29 19 16 13 11 12 7 4 359 350 341 329 324 325 330 349 3 10 18 20 17 21 26 26 25 26 24 20 19 18 14 13 11 6 3 2 358 355 352 350 348 348 348 349 351 353
95 77 76 71 63 69 72 69 61 53 53 59 66 74 74 69 72 77 78 85 91 97 97 93 89 82 78 80 80 80 76 70 67 65 60 54 48 44 41 32 23 27 25 21 24 23 22 16 7 1 349 337 326 316 334 352 360 7 11 11 12 15 17 18 18 18 14 12 10 7 6 3 358 355 353 350 348 349 349 349 351 355 359 1 3
94 61 66 74 78 79 74 66 60 53 52 64 65 58 65 68 71 75 77 81 84 86 90 93 89 86 85 82 79 78 73 68 65 65 61 52 47 46 42 28 18 20 19 18 20 21 22 19 17 18 19 15 1 344 340 347 348 353 357 357 359 1 6 9 9 8 5 3 1 360 358 355 351 348 348 347 348 352 355 356 1 5 8 9 9
96 53 47 59 72 78 72 61 60 60 54 63 69 59 61 69 73 74 74 79 81 80 84 89 87 88 91 88 86 84 78 72 66 64 58 48 44 38 33 28 20 11 6 13 14 11 14 15 18 25 35 45 52 52 31 1 344 342 344 346 350 353 356 360 0 359 358 357 358 356 355 352 350 349 351 354 357 2 4 7 10 11 12 11 9
108 67 44 46 59 74 76 63 59 62 58 64 72 64 59 65 72 76 72 74 78 76 82 89 91 96 98 98 98 92 85 78 71 66 61 52 45 36 29 27 23 13 4 11 7 360 7 12 16 27 38 46 53 52 39 21 2 351 348 350 353 351 351 355 355 358 358 357 359 359 359 359 357 358 1 4 8 12 12 13 12 11 10 9 6
127 81 52 42 48 71 81 72 61 57 58 72 78 71 65 65 71 77 75 74 77 77 84 96 103 103 100 101 103 101 94 86 77 70 67 58 50 44 37 29 22 18 9 3 358 357 3 7 13 24 32 39 43 40 34 25 10 1 359 359 360 357 357 2 3 4 3 2 6 7 7 7 7 8 10 10 12 14 12 11 9 8 6 4 3
147 100 67 47 46 62 68 65 59 53 58 72 75 66 60 62 69 75 79 80 80 81 88 103 110 105 104 104 102 100 96 92 87 79 72 62 52 45 42 35 22 20 18 7 2 2 1 4 16 21 20 27 33 31 28 23 15 8 6 5 6 6 8 11 12 10 9 10 12 13 12 11 11 9 7 8 10 10 9 8 6 4 2 360 359
155 119 79 46 40 46 49 50 52 52 58 69 70 61 53 55 62 71 77 78 78 85 93 105 111 109 110 110 106 101 97 97 94 86 78 67 57 47 41 39 31 24 26 26 18 9 4 8 23 23 16 21 24 23 20 19 20 16 14 14 13 14 15 15 16 15 14 15 15 14 13 11 8 5 5 7 9 9 8 7 5 2 1 360 360
160 117 82 45 33 32 39 41 45 49 52 61 67 61 51 51 59 68 76 77 79 90 99 106 111 113 113 111 108 104 102 103 98 92 85 78 73 62 48 45 47 38 35 42 49 44 26 17 29 29 27 32 23 13 13 21 31 28 26 27 23 22 21 20 20 18 17 16 16 16 14 13 12 11 12 12 12 12 12 11 9 7 7 6 5
188 113 87 66 44 36 46 42 42 50 50 55 65 61 52 52 60 71 77 78 80 91 103 112 115 116 115 112 108 104 103 102 96 91 85 81 78 69 60 55 56 53 57 80 109 102 91 70 48 35 44 52 34 24 31 42 46 41 37 35 32 30 28 28 26 25 23 22 22 23 22 21 21 20 20 20 20 20 20 19 17 14 14 12 10
215 222 256 186 62 42 59 54 48 54 54 54 61 61 53 51 58 67 77 80 81 88 101 109 116 123 124 119 111 102 98 97 93 91 84 79 80 77 70 63 64 66 75 93 101 104 112 105 65 61 66 66 41 40 48 51 49 45 41 38 36 35 34 34 35 34 33 32 31 31 30 29 28 28 27 28 27 27 26 24 23 20 19 17 15
215 225 246 256 240 53 58 61 57 55 57 56 58 58 52 54 59 62 73 79 79 86 97 105 115 127 132 127 112 95 90 103 100 95 89 85 87 84 74 66 70 73 80 89 84 86 98 92 82 83 71 63 54 53 52 51 49 47 45 42 40 41 41 42 42 43 42 42 41 40 40 39 37 36 35 35 34 32 31 29 27 25 23 22 19
214 219 227 240 233 195 107 76 70 62 64 66 67 63 50 52 57 58 67 73 77 82 92 107 119 127 132 131 118 110 124 119 106 102 101 99 95 83 74 75 79 79 82 87 85 88 91 85 84 86 81 77 72 65 58 55 54 51 48 46 46 46 48 49 49 50 51 51 51 50 49 48 45 43 40 38 37 35 32 30 28 27 25 24 22
217 219 221 226 223 197 168 136 106 82 76 67 73 75 59 53 55 58 64 72 80 81 86 97 111 125 132 134 125 133 140 118 106 111 106 102 105 97 85 81 84 86 85 91 91 88 84 81 84 89 88 85 82 73 63 59 57 54 52 51 53 55 56 59 59 59 60 60 59 56 54 51 48 45 41 38 36 33 30 28 26 25 24 23 21
217 219 221 219 213 197 178 167 155 121 99 85 86 89 75 62 57 58 64 73 84 86 87 91 100 114 121 123 118 126 127 110 111 113 101 97 99 95 88 80 84 86 78 83 85 78 76 77 84 88 86 81 75 70 64 62 61 59 61 61 63 66 66 68 68 66 65 62 60 57 53 49 44 41 37 34 31 28 26 24 22 20 19 18 17
218 219 221 218 207 194 180 175 173 156 122 110 110 107 99 83 65 59 64 71 81 91 91 91 95 98 102 109 110 113 117 116 119 120 119 112 95 85 84 76 75 75 65 70 74 75 73 69 74 76 75 73 68 66 64 65 68 69 72 74 74 75 74 72 69 65 62 58 54 50 46 42 37 34 30 27 25 22 20 18 17 15 14 12 11
220 219 221 218 208 195 184 179 182 177 153 142 136 126 118 107 88 72 70 72 79 92 94 94 95 93 95 104 107 111 118 122 121 119 126 128 119 116 105 78 68 65 70 72 65 73 75 67 70 71 69 70 69 71 73 74 77 79 80 81 79 76 71 67 62 58 53 48 44 40 36 32 29 26 23 20 18 15 14 12 10 9 8 7 6
221 220 219 216 210 201 191 187 187 190 182 169 161 148 136 127 115 96 81 78 82 91 94 95 96 97 102 108 111 114 118 119 117 112 111 118 129 127 103 87 80 61 63 67 59 67 75 71 73 74 73 75 77 81 84 85 85 84 83 79 74 68 62 57 51 46 41 35 31 27 24 21 18 16 13 11 9 7 5 4 2 1 0 359 359
221 221 218 215 213 206 199 196 194 197 198 188 179 171 155 143 134 117 95 84 85 93 98 101 102 104 108 112 114 116 117 120 117 112 111 112 117 112 97 105 106 76 64 65 64 69 74 74 75 75 75 78 84 88 88 89 88 83 79 71 63 56 49 42 36 31 26 22 19 15 12 10 8 5 3 1 359 358 357 356 355 354 353 352 352
220 221 219 217 216 211 207 206 202 202 204 201 194 185 175 163 153 142 126 105 96 98 104 110 113 111 112 113 114 113 111 113 113 111 109 104 101 103 103 102 99 88 79 75 72 70 71 73 74 75 78 81 85 87 86 85 81 74 67 56 47 39 31 26 22 18 15 11 8 5 2 360 358 355 354 352 350 349 349 349 349 348 347 345 344
219 219 218 219 219 215 212 211 208 206 208 209 205 196 190 182 169 160 153 139 124 115 115 118 117 117 120 118 114 113 112 111 110 108 105 100 97 95 93 91 89 86 84 84 80 76 73 71 68 68 72 75 77 77 75 69 62 55 47 38 29 22 17 13 9 7 5 2 358 355 353 350 349 347 346 344 343 342 342 342 341 341 340 339 338
217 216 216 219 219 216 215 215 213 212 213 213 212 205 201 195 182 174 170 165 156 142 134 129 124 124 127 125 121 119 119 114 109 105 101 95 90 82 75 72 72 69 72 81 79 76 73 67 68 68 63 60 56 51 46 40 35 31 25 19 13 7 4 3 1 357 354 351 349 347 345 343 342 341 339 338 337 336 335 334 334 333 332 332 331
217 215 214 216 217 216 217 219 219 220 220 219 218 213 208 202 193 187 185 182 176 169 158 146 138 135 132 131 129 126 124 118 112 108 102 93 84 75 64 53 49 46 50 64 68 65 60 53 58 62 49 35 22 14 12 11 12 9 5 1 359 356 353 352 349 347 344 343 342 340 339 338 336 335 333 332 330 329 328 328 327 326 326 325 325
218 214 213 214 216 217 220 223 225 226 228 226 225 222 215 208 202 196 195 196 191 185 179 168 160 156 150 146 141 134 129 123 119 116 108 101 92 79 66 52 39 24 22 40 51 44 31 21 22 22 8 357 354 353 351 352 353 352 350 348 347 345 343 342 340 338 337 336 336 335 334 333 331 329 328 327 326 325 324 324 323 322 322 321 320
219 214 214 215 216 217 219 224 228 228 231 232 230 229 222 214 210 204 201 204 202 197 193 187 182 179 175 171 164 154 144 136 131 130 124 118 110 98 76 57 38 11 4 6 8 11 3 350 339 332 333 335 336 338 339 341 341 339 339 339 338 336 334 333 332 332 331 330 330 329 328 328 326 326 325 325 325 324 324 323 323 322 321 320 319
219 215 215 216 218 218 220 223 228 230 232 233 234 235 231 222 215 211 209 208 206 205 204 201 198 198 198 196 191 184 176 167 161 161 159 150 142 131 65 350 341 345 344 337 332 331 331 330 324 320 322 327 329 332 332 332 334 333 333 333 331 329 327 326 326 326 326 325 325 325 326 326 326 326 326 326 326 326 325 325 324 323 322 321 319
221 217 216 218 219 221 222 226 231 234 235 235 237 239 238 232 222 216 216 214 210 210 211 209 209 210 212 212 211 210 206 201 205 212 211 222 249 261 278 288 296 300 301 309 316 316 316 319 321 321 321 321 323 326 326 326 327 328 328 327 326 325 323 322 322 322 323 323 323 324 325 326 327 328 329 329 328 328 327 325 324 323 322 320 319
223 220 218 219 220 221 223 227 233 236 237 237 239 239 239 238 231 223 220 218 214 214 216 216 215 216 219 222 224 225 224 223 229 240 247 255 264 270 274 277 284 290 289 290 291 295 303 308 313 317 319 319 321 323 324 324 325 324 323 323 321 318 317 317 318 319 320 320 321 323 325 327 330 330 331 330 329 328 327 326 325 324 322 320 319
224 222 220 220 221 221 223 228 233 237 240 242 244 244 241 240 236 231 227 222 218 218 220 222 222 222 224 226 229 232 234 236 241 250 258 266 271 273 273 273 276 281 283 285 284 281 286 294 300 305 309 312 316 319 320 320 320 319 318 317 315 314 313 313 314 315 316 318 319 322 325 328 329 329 328 328 327 327 327 326 326 324 323 321 320
225 223 221 221 223 223 226 230 233 237 242 245 248 249 246 242 238 237 235 229 223 222 223 224 226 227 229 229 232 236 238 241 245 251 257 264 270 273 274 273 275 279 280 281 284 284 283 287 292 295 298 302 307 310 311 313 313 310 309 309 310 310 311 312 314 316 318 320 322 323 325 326 326 326 325 325 324 324 324 324 324 324 323 322 321
227 225 223 223 224 225 228 232 233 236 239 242 246 249 249 247 242 240 239 235 229 227 226 227 228 230 232 233 234 237 239 241 245 249 253 258 265 270 272 274 276 279 281 281 283 285 285 287 291 294 298 301 304 307 309 310 308 306 305 305 305 306 308 312 315 318 321 324 325 326 326 326 325 324 324 324 324 324 324 324 324 323 322 322 321
229 227 224 225 226 226 228 231 232 234 237 238 242 247 250 249 246 242 241 237 232 230 230 229 230 232 234 235 237 240 241 243 245 250 253 257 262 267 271 274 278 282 284 286 288 288 289 290 293 297 300 302 305 307 307 306 303 302 302 303 304 307 310 313 316 320 323 325 325 325 325 323 323 323 324 324 324 324 324 324 323 322 321 321 320
230 228 226 226 227 227 229 232 232 234 237 238 239 245 248 248 246 244 242 240 235 232 232 232 232 233 234 236 239 242 244 245 247 251 255 259 263 267 272 276 281 285 288 291 293 295 296 297 299 301 303 304 306 306 304 301 298 299 301 303 306 310 313 316 318 321 323 323 323 324 324 324 323 323 324 324 324 324 323 322 321 320 319 318 316
230 230 228 228 230 229 230 233 234 233 236 238 238 242 246 246 245 245 245 243 239 236 234 234 235 235 235 237 239 242 245 248 249 252 256 261 265 269 274 279 284 288 290 292 293 295 296 298 300 303 305 306 305 304 301 297 297 300 303 307 311 315 318 319 321 323 323 324 326 326 326 325 324 323 324 323 323 322 321 320 319 317 316 315 313
230 231 230 231 233 233 232 234 236 235 235 237 239 240 244 248 247 247 249 249 245 240 237 236 237 238 238 238 240 242 245 248 251 254 257 261 265 270 275 280 283 287 290 292 293 294 296 298 301 305 307 308 306 305 302 298 298 303 310 314 319 323 325 325 327 328 329 328 328 326 325 323 322 322 322 321 321 322 323 324 323 321 318 314 312
228 231 232 233 235 237 236 235 237 238 236 237 239 239 242 248 250 249 251 253 250 245 241 238 238 239 240 240 241 242 244 247 250 254 258 261 265 270 274 278 281 284 287 291 293 295 299 302 307 312 316 320 318 314 307 301 301 307 314 320 325 329 329 329 330 331 330 328 325 324 323 322 320 319 319 320 322 324 327 330 330 327 323 318 314
229 230 232 234 236 238 239 239 239 240 239 238 239 239 241 247 252 252 252 254 254 250 246 242 240 240 240 240 241 242 243 245 248 252 257 261 265 268 271 274 278 281 285 289 293 298 302 305 310 317 326 332 325 315 308 304 306 311 317 322 326 329 328 327 328 329 327 324 321 320 320 319 317 317 319 322 325 327 330 333 333 330 327 323 318
231 231 231 233 235 236 238 240 241 242 241 240 240 240 242 245 250 252 251 252 254 254 251 246 242 240 239 239 241 241 242 243 246 250 254 258 261 263 267 271 276 280 285 290 296 301 303 304 308 315 328 329 318 310 308 306 308 312 316 320 324 327 326 324 324 325 325 322 318 316 316 317 318 319 323 326 330 332 334 335 335 333 331 327 323
232 232 232 232 233 234 235 238 241 242 242 242 240 240 241 243 246 250 251 251 252 255 254 249 244 240 238 238 240 241 241 241 243 247 249 251 253 256 263 271 277 283 289 294 299 302 302 299 302 314 323 321 312 307 307 306 308 312 316 319 322 324 325 322 320 322 325 322 317 315 317 320 320 322 326 329 331 334 337 338 338 336 334 331 328
231 233 233 233 233 233 234 236 238 240 242 241 240 239 240 241 244 247 251 251 251 253 254 251 245 241 238 237 239 240 240 239 239 241 243 245 250 256 263 271 278 285 291 295 298 300 298 294 299 314 319 313 307 306 307 307 309 313 317 320 322 324 324 322 320 322 324 321 316 315 319 322 322 323 328 331 332 335 339 341 341 339 336 332 329
229 232 233 234 234 234 236 236 237 238 241 241 239 238 239 240 242 245 248 251 252 252 253 251 246 241 238 238 238 239 238 235 233 236 240 244 250 256 264 271 278 284 290 294 295 293 289 289 296 310 313 306 303 306 307 308 311 315 318 321 322 322 321 319 318 320 321 318 313 313 317 322 323 325 329 332 333 336 340 341 341 341 338 333 328
228 229 232 233 234 235 237 239 239 239 241 242 239 237 240 241 241 244 246 248 250 251 250 250 247 243 240 238 238 237 235 232 230 232 239 247 253 256 261 268 275 283 290 293 293 286 283 287 293 301 304 301 303 307 309 310 313 316 318 319 319 318 317 315 316 318 317 313 310 311 316 322 325 327 330 332 334 337 339 340 339 339 337 335 332
227 228 230 232 234 235 236 239 240 239 240 242 240 236 238 242 242 244 245 247 249 250 250 250 249 247 243 240 238 236 234 232 230 231 238 246 254 259 262 267 273 281 287 290 287 281 281 286 291 295 298 300 304 308 310 312 314 315 316 317 317 316 314 314 316 317 314 311 310 312 317 323 327 328 330 331 333 337 338 338 337 336 337 337 337
226 227 228 231 233 234 235 238 240 239 239 241 241 236 235 240 243 245 246 247 249 249 250 250 249 248 247 244 240 237 236 234 232 233 239 246 254 260 265 269 275 281 287 288 281 274 275 281 287 292 297 300 303 306 308 310 312 313 315 316 315 314 313 314 315 315 313 312 311 312 316 323 326 327 328 329 333 336 338 337 336 336 337 337 337
225 226 227 229 232 233 234 236 239 241 241 241 241 238 234 237 241 245 246 248 249 250 250 250 250 249 248 246 244 241 239 238 236 237 242 248 253 260 265 271 276 281 287 290 284 277 276 278 282 289 294 298 300 302 305 306 309 312 313 314 313 312 311 310 310 309 309 310 310 312 316 322 324 325 326 329 331 334 336 336 336 336 335 335 335
225 227 227 229 231 233 235 236 238 241 243 243 241 239 236 235 238 243 246 248 250 250 249 249 250 249 249 248 247 245 243 241 240 240 243 248 253 259 264 270 275 279 285 288 286 282 280 281 284 287 290 293 296 299 302 305 308 311 311 311 312 312 310 308 306 305 305 306 307 311 315 319 322 324 325 326 328 332 336 337 336 334 333 332 333
226 229 229 230 231 233 235 237 238 239 242 243 242 239 237 237 238 241 244 247 249 250 249 249 249 249 249 248 247 247 246 244 243 243 245 248 252 258 263 267 273 278 283 285 283 282 282 284 287 287 288 291 294 297 300 303 306 309 309 309 311 312 309 306 304 302 300 301 304 309 314 318 321 323 325 325 327 331 335 336 334 332 331 330 330
Height
3227 3227 3228 3228 3226 3227 3231 3231 3230 3229 3228 3228 3228 3229 3230 3230 3232 3231 3228 3228 3230 3230 3230 3230 3230 3230 3231 3231 3231 3231 3230 3230 3231 3231 3231 3231 3232 3232 3233 3233 3233 3234 3234 3234 3234 3234 3234 3234 3234 3234 3234 3234 3234 3234 3234 3234 3233 3233 3233 3232 3232 3231 3231 3231 3230 3230 3229 3229 3229 3228 3228 3228 3227 3227 3227 3226 3226 3226 3225 3225 3224 3224 3223 3222 3221
3228 3228 3229 3229 3228 3229 3232 3230 3230 3230 3229 3228 3229 3229 3230 3230 3233 3232 3229 3228 3229 3230 3231 3231 3230 3231 3231 3232 3232 3232 3232 3231 3231 3232 3232 3232 3232 3233 3233 3234 3234 3234 3235 3235 3235 3235 3235 3235 3235 3235 3235 3235 3235 3234 3234 3234 3234 3233 3233 3233 3232 3232 3232 3231 3231 3231 3230 3230 3229 3229 3229 3228 3228 3228 3228 3227 3227 3226 3226 3225 3225 3224 3223 3223 3222
3228 3228 3227 3228 3230 3232 3232 3230 3230 3230 3229 3229 3229 3230 3230 3230 3231 3230 3228 3228 3229 3231 3232 3231 3231 3231 3232 3232 3232 3232 3232 3232 3232 3233 3233 3233 3233 3234 3234 3235 3235 3235 3235 3235 3235 3235 3235 3235 3235 3235 3235 3235 3235 3235 3234 3234 3234 3234 3233 3233 3233 3233 3232 3232 3232 3231 3231 3231 3230 3230 3230 3229 3229 3229 3228 3228 3227 3227 3226 3225 3225 3224 3223 3223 3222
3229 3228 3226 3228 3231 3233 3232 3231 3230 3229 3229 3228 3229 3230 3230 3230 3229 3227 3227 3228 3230 3232 3232 3231 3231 3232 3232 3232 3233 3233 3233 3233 3234 3234 3234 3234 3234 3235 3235 3235 3236 3235 3236 3236 3236 3236 3236 3235 3235 3235 3235 3235 3235 3235 3235 3235 3234 3234 3234 3234 3234 3234 3233 3233 3233 3232 3232 3232 3231 3231 3231 3230 3230 3229 3229 3228 3228 3227 3226 3226 3225 3224 3223 3223 3222
3229 3230 3229 3230 3232 3233 3233 3232 3231 3229 3229 3229 3229 3230 3230 3229 3228 3228 3229 3229 3231 3232 3232 3232 3232 3232 3232 3233 3233 3233 3234 3234 3235 3235 3235 3235 3235 3236 3236 3236 3236 3236 3236 3236 3236 3236 3236 3236 3235 3235 3235 3235 3235 3235 3235 3235 3235 3235 3235 3235 3234 3234 3234 3234 3233 3233 3233 3232 3232 3232 3231 3231 3230 3230 3229 3228 3228 3227 3226 3226 3225 3224 3223 3222 3221
3230 3230 3231 3232 3232 3233 3233 3232 3231 3230 3230 3231 3231 3230 3229 3228 3229 3229 3230 3230 3231 3232 3232 3232 3232 3233 3233 3233 3234 3234 3235 3236 3236 3236 3237 3236 3237 3237 3237 3237 3237 3237 3237 3237 3237 3237 3236 3236 3236 3235 3235 3235 3235 3235 3236 3236 3236 3236 3235 3235 3235 3235 3235 3234 3234 3234 3233 3233 3233 3232 3232 3231 3230 3230 3229 3228 3228 3227 3226 3225 3225 3224 3223 3222 3221
3231 3231 3231 3232 3233 3234 3234 3233 3232 3231 3231 3231 3231 3231 3230 3230 3230 3230 3230 3230 3231 3231 3232 3232 3233 3233 3234 3234 3235 3236 3236 3237 3237 3237 3238 3238 3238 3238 3238 3238 3238 3238 3238 3238 3238 3238 3237 3237 3236 3236 3235 3235 3235 3236 3236 3236 3236 3236 3236 3236 3235 3235 3235 3235 3234 3234 3234 3233 3233 3232 3232 3231 3230 3230 3229 3228 3227 3227 3226 3225 3224 3224 3223 3222 3221
3232 3232 3232 3234 3234 3234 3234 3234 3233 3232 3232 3231 3232 3232 3231 3231 3230 3230 3231 3231 3231 3231 3232 3232 3233 3234 3234 3235 3236 3237 3237 3238 3238 3239 3239 3239 3239 3239 3239 3240 3239 3239 3239 3239 3239 3239 3238 3238 3237 3237 3236 3236 3236 3236 3236 3236 3236 3236 3236 3236 3235 3235 3235 3234 3234 3234 3234 3233 3233 3232 3231 3231 3230 3230 3229 3228 3228 3227 3226 3225 3225 3224 3223 3222 3221
3233 3233 3234 3235 3235 3235 3235 3234 3233 3233 3233 3232 3232 3232 3233 3232 3231 3231 3231 3231 3231 3232 3233 3233 3234 3235 3235 3236 3237 3238 3238 3239 3239 3239 3240 3240 3240 3240 3240 3240 3240 3240 3239 3239 3239 3239 3239 3239 3238 3238 3237 3237 3237 3237 3237 3237 3237 3236 3236 3236 3235 3235 3235 3234 3234 3234 3234 3233 3233 3232 3231 3231 3230 3230 3229 3229 3228 3227 3227 3226 3225 3224 3223 3223 3222
3233 3233 3234 3235 3235 3235 3236 3235 3234 3233 3233 3234 3233 3234 3234 3234 3233 3232 3232 3232 3232 3233 3234 3234 3235 3236 3237 3237 3238 3238 3239 3240 3240 3240 3240 3240 3240 3240 3240 3240 3240 3241 3240 3240 3240 3240 3239 3239 3239 3239 3238 3238 3237 3237 3237 3237 3237 3237 3236 3236 3236 3235 3235 3235 3235 3234 3234 3234 3233 3233 3232 3232 3231 3231 3230 3230 3229 3228 3227 3226 3226 3225 3224 3223 3222
3234 3234 3234 3235 3235 3236 3236 3236 3235 3234 3235 3235 3234 3234 3234 3234 3233 3232 3233 3233 3233 3234 3235 3236 3236 3237 3238 3238 3239 3239 3240 3240 3241 3241 3241 3241 3241 3241 3241 3241 3241 3241 3241 3241 3241 3240 3240 3240 3240 3239 3239 3239 3238 3238 3238 3237 3237 3237 3237 3236 3236 3236 3236 3235 3235 3235 3235 3234 3234 3234 3233 3233 3232 3232 3231 3230 3229 3228 3228 3227 3226 3225 3224 3223 3222
3234 3234 3234 3234 3235 3235 3235 3235 3235 3235 3235 3235 3235 3235 3234 3234 3233 3233 3233 3234 3234 3235 3236 3237 3237 3238 3239 3239 3240 3240 3241 3241 3241 3241 3241 3241 3242 3242 3242 3242 3242 3242 3242 3241 3241 3241 3241 3240 3240 3240 3240 3239 3239 3239 3238 3238 3238 3238 3237 3237 3237 3237 3237 3236 3236 3236 3235 3235 3235 3234 3234 3233 3233 3232 3231 3230 3229 3229 3228 3227 3226 3225 3224 3224 3223
3234 3235 3235 3235 3235 3235 3234 3235 3235 3236 3236 3236 3236 3235 3234 3234 3235 3235 3235 3235 3235 3236 3237 3238 3238 3239 3240 3240 3241 3241 3241 3242 3242 3242 3242 3242 3242 3242 3242 3242 3242 3242 3242 3242 3242 3242 3241 3241 3241 3241 3240 3240 3240 3239 3239 3239 3239 3239 3238 3238 3238 3238 3238 3237 3237 3237 3236 3236 3236 3235 3234 3234 3233 3232 3231 3230 3230 3229 3228 3228 3227 3226 3225 3224 3223
3234 3235 3236 3236 3236 3236 3236 3236 3236 3236 3237 3236 3236 3236 3235 3235 3236 3236 3236 3236 3236 3237 3238 3238 3239 3240 3240 3241 3241 3242 3242 3242 3242 3242 3242 3243 3243 3243 3243 3243 3243 3243 3243 3242 3242 3242 3242 3241 3241 3241 3241 3241 3240 3240 3240 3240 3240 3239 3239 3239 3239 3239 3238 3238 3238 3237 3237 3237 3236 3235 3235 3234 3233 3233 3232 3231 3231 3230 3229 3228 3227 3226 3225 3224 3223
3234 3235 3236 3236 3236 3237 3237 3237 3237 3237 3237 3236 3236 3237 3236 3236 3237 3237 3237 3237 3237 3238 3238 3239 3239 3240 3241 3241 3242 3242 3243 3243 3243 3243 3243 3244 3244 3244 3244 3244 3244 3244 3243 3243 3242 3242 3242 3242 3242 3242 3241 3241 3241 3241 3241 3241 3240 3240 3240 3240 3240 3239 3239 3239 3238 3238 3238 3237 3236 3236 3235 3235 3234 3234 3233 3232 3231 3231 3230 3229 3228 3227 3226 3225 3224
3235 3235 3236 3236 3237 3237 3237 3237 3237 3237 3238 3237 3237 3238 3238 3238 3238 3239 3239 3238 3238 3239 3239 3239 3240 3241 3241 3242 3242 3243 3243 3244 3244 3244 3244 3245 3245 3245 3245 3245 3245 3245 3244 3244 3243 3243 3243 3243 3242 3242 3242 3242 3242 3241 3241 3241 3241 3241 3241 3241 3240 3240 3240 3239 3239 3238 3238 3238 3237 3237 3236 3236 3235 3235 3234 3233 3232 3231 3230 3229 3228 3227 3226 3225 3224
3235 3235 3236 3237 3237 3237 3237 3237 3238 3238 3238 3239 3239 3239 3239 3239 3239 3239 3239 3239 3239 3239 3240 3240 3241 3241 3242 3242 3243 3243 3244 3244 3244 3244 3245 3245 3246 3246 3246 3246 3246 3246 3245 3245 3244 3244 3243 3243 3243 3243 3242 3242 3242 3242 3242 3242 3242 3242 3241 3241 3241 3241 3240 3240 3239 3239 3239 3239 3238 3238 3237 3237 3236 3235 3234 3233 3232 3231 3230 3229 3228 3227 3226 3225 3224
3235 3236 3236 3237 3237 3238 3238 3238 3238 3239 3239 3239 3240 3240 3240 3240 3240 3240 3240 3240 3241 3240 3240 3241 3241 3242 3242 3243 3243 3243 3244 3244 3245 3245 3246 3246 3247 3247 3247 3247 3246 3246 3246 3245 3245 3245 3244 3244 3244 3243 3243 3243 3243 3243 3242 3242 3242 3242 3242 3242 3241 3241 3241 3241 3240 3240 3240 3240 3239 3239 3238 3237 3236 3235 3234 3233 3233 3232 3231 3230 3229 3228 3227 3226 3225
3235 3236 3236 3237 3238 3238 3239 3239 3239 3239 3240 3240 3240 3241 3241 3241 3241 3241 3241 3241 3241 3241 3241 3241 3242 3242 3243 3243 3244 3244 3244 3245 3245 3246 3246 3247 3247 3247 3247 3247 3247 3247 3246 3246 3246 3245 3245 3245 3245 3244 3244 3243 3243 3243 3243 3243 3243 3243 3242 3242 3242 3242 3242 3242 3241 3241 3241 3240 3239 3239 3238 3237 3236 3236 3235 3234 3233 3232 3231 3230 3229 3228 3227 3226 3225
3235 3235 3236 3237 3238 3238 3239 3239 3240 3240 3240 3241 3241 3241 3242 3242 3242 3242 3242 3242 3242 3242 3242 3242 3242 3243 3243 3244 3244 3245 3245 3246 3246 3246 3247 3247 3248 3249 3248 3248 3248 3248 3247 3247 3247 3246 3246 3246 3245 3245 3244 3244 3244 3244 3244 3244 3244 3244 3243 3243 3243 3243 3243 3243 3242 3242 3241 3241 3240 3239 3238 3238 3237 3236 3235 3234 3234 3233 3232 3231 3229 3228 3227 3226 3225
3234 3235 3236 3237 3238 3238 3239 3239 3240 3240 3241 3241 3242 3242 3243 3243 3243 3243 3243 3243 3243 3243 3243 3243 3243 3244 3244 3244 3245 3245 3246 3246 3246 3247 3247 3248 3248 3249 3249 3249 3249 3248 3248 3248 3247 3247 3247 3246 3246 3245 3245 3245 3245 3245 3245 3245 3245 3245 3245 3244 3244 3244 3244 3243 3243 3242 3242 3241 3241 3240 3239 3238 3238 3237 3236 3235 3234 3233 3232 3231 3230 3228 3227 3226 3224
3234 3235 3236 3237 3237 3238 3239 3239 3240 3240 3241 3242 3242 3243 3243 3244 3244 3244 3244 3244 3244 3244 3244 3244 3244 3244 3245 3245 3246 3246 3246 3247 3247 3247 3248 3248 3248 3248 3248 3249 3250 3249 3248 3248 3248 3248 3247 3247 3247 3246 3246 3246 3246 3246 3246 3246 3246 3246 3246 3245 3245 3245 3244 3244 3243 3243 3243 3242 3241 3241 3240 3239 3238 3237 3236 3235 3234 3233 3232 3231 3230 3228 3227 3225 3224
3233 3234 3235 3236 3237 3238 3238 3239 3239 3240 3241 3242 3242 3243 3243 3244 3244 3245 3245 3245 3245 3245 3245 3245 3245 3245 3246 3246 3246 3246 3247 3247 3248 3248 3248 3249 3249 3248 3249 3250 3250 3250 3249 3249 3249 3248 3248 3248 3247 3247 3248 3248 3248 3248 3248 3247 3247 3247 3246 3246 3246 3245 3245 3245 3244 3244 3243 3243 3242 3241 3240 3239 3238 3237 3236 3235 3234 3233 3232 3231 3230 3228 3227 3225 3224
3232 3233 3234 3235 3236 3237 3238 3238 3239 3240 3241 3242 3242 3243 3243 3244 3245 3245 3245 3245 3245 3246 3246 3246 3246 3246 3246 3247 3247 3247 3248 3248 3248 3249 3249 3249 3249 3249 3250 3250 3250 3250 3250 3250 3250 3249 3249 3249 3249 3249 3249 3249 3249 3249 3249 3248 3248 3248 3247 3247 3247 3246 3246 3245 3245 3244 3244 3243 3242 3241 3241 3240 3239 3238 3237 3235 3234 3233 3232 3231 3229 3228 3226 3225 3223
3231 3233 3234 3234 3235 3236 3237 3238 3239 3239 3240 3241 3242 3243 3243 3244 3244 3245 3246 3246 3246 3246 3246 3247 3247 3247 3247 3247 3248 3248 3249 3249 3249 3250 3250 3250 3250 3250 3250 3251 3251 3251 3251 3251 3251 3250 3250 3250 3250 3250 3250 3250 3250 3250 3249 3249 3249 3249 3248 3248 3247 3247 3246 3246 3245 3245 3244 3243 3243 3242 3241 3240 3239 3238 3236 3235 3234 3233 3231 3230 3229 3227 3226 3224 3223
3230 3232 3233 3234 3234 3235 3236 3237 3238 3239 3239 3240 3241 3242 3243 3244 3244 3245 3246 3246 3246 3247 3247 3247 3248 3248 3248 3248 3248 3249 3249 3250 3250 3251 3251 3251 3251 3251 3251 3251 3251 3251 3251 3251 3251 3251 3251 3251 3251 3251 3251 3251 3251 3251 3250 3250 3249 3249 3249 3248 3248 3247 3247 3246 3246 3245 3244 3243 3243 3242 3241 3239 3238 3237 3236 3234 3233 3232 3230 3229 3228 3226 3225 3223 3221
3229 3230 3231 3232 3233 3234 3235 3236 3237 3238 3239 3240 3241 3242 3243 3243 3244 3245 3245 3246 3246 3247 3247 3248 3248 3249 3249 3249 3249 3249 3250 3250 3251 3251 3251 3251 3252 3252 3252 3252 3252 3251 3251 3251 3251 3251 3252 3252 3252 3252 3252 3252 3252 3251 3251 3251 3250 3250 3249 3249 3248 3248 3247 3246 3245 3245 3244 3243 3242 3241 3240 3239 3237 3236 3234 3233 3231 3230 3229 3227 3226 3224 3223 3222 3220
3227 3229 3230 3231 3232 3233 3234 3235 3236 3237 3238 3239 3240 3241 3242 3243 3244 3245 3245 3246 3246 3247 3247 3248 3248 3249 3249 3250 3250 3250 3250 3251 3251 3252 3252 3252 3252 3253 3253 3252 3252 3252 3252 3252 3252 3252 3252 3252 3252 3252 3252 3252 3252 3252 3251 3251 3250 3250 3249 3249 3248 3248 3247 3246 3245 3244 3243 3242 3241 3240 3239 3237 3236 3234 3232 3231 3229 3228 3226 3225 3223 3222 3221 3219 3218
3226 3228 3229 3230 3231 3232 3233 3234 3235 3236 3237 3238 3239 3240 3241 3242 3243 3244 3245 3245 3246 3247 3247 3248 3248 3249 3249 3250 3250 3251 3251 3251 3252 3252 3252 3253 3253 3253 3253 3253 3253 3253 3252 3252 3252 3253 3253 3253 3253 3253 3253 3252 3252 3251 3251 3250 3250 3250 3249 3248 3248 3247 3246 3245 3244 3243 3242 3240 3239 3238 3237 3235 3234 3232 3230 3228 3227 3225 3223 3222 3220 3219 3218 3216 3215
3225 3226 3227 3228 3229 3231 3232 3233 3234 3235 3236 3237 3238 3239 3240 3241 3242 3243 3244 3245 3245 3246 3247 3247 3248 3249 3249 3249 3250 3250 3251 3252 3252 3252 3252 3253 3253 3253 3253 3253 3253 3253 3253 3253 3252 3253 3253 3253 3253 3253 3252 3252 3251 3251 3250 3250 3250 3249 3248 3247 3246 3245 3244 3243 3242 3241 3240 3239 3238 3236 3234 3233 3231 3229 3228 3226 3224 3223 3221 3219 3218 3216 3215 3213 3212
3223 3224 3226 3227 3228 3229 3231 3232 3233 3234 3235 3236 3237 3237 3238 3239 3241 3242 3243 3244 3245 3245 3246 3247 3247 3248 3248 3249 3250 3250 3251 3251 3252 3252 3252 3253 3253 3253 3253 3253 3253 3253 3254 3254 3253 3253 3253 3253 3253 3252 3252 3251 3251 3251 3250 3250 3249 3248 3247 3246 3245 3243 3242 3241 3240 3239 3238 3237 3235 3234 3232 3230 3228 3227 3225 3224 3222 3220 3219 3217 3215 3214 3212 3210 3209
3221 3223 3224 3226 3227 3228 3230 3231 3231 3232 3233 3234 3235 3236 3237 3238 3239 3240 3241 3243 3244 3244 3245 3246 3247 3247 3248 3248 3249 3250 3250 3251 3251 3252 3252 3252 3252 3252 3253 3253 3253 3253 3253 3253 3254 3254 3253 3252 3252 3252 3251 3251 3250 3250 3250 3249 3248 3247 3246 3245 3243 3242 3241 3239 3238 3237 3236 3235 3233 3232 3230 3228 3226 3224 3223 3221 3219 3218 3216 3214 3212 3210 3209 3207 3205
3219 3221 3223 3224 3225 3227 3228 3229 3230 3230 3231 3232 3233 3234 3235 3236 3238 3239 3240 3241 3242 3243 3244 3245 3246 3246 3247 3247 3248 3249 3249 3250 3251 3251 3251 3251 3251 3251 3252 3252 3252 3252 3253 3253 3253 3253 3253 3253 3252 3252 3251 3251 3250 3250 3249 3248 3247 3246 3244 3242 3240 3239 3238 3238 3236 3235 3234 3234 3232 3231 3229 3227 3226 3224 3222 3220 3218 3216 3214 3212 3210 3208 3205 3203 3202
3217 3219 3221 3222 3224 3225 3227 3227 3228 3229 3230 3231 3232 3232 3233 3235 3236 3237 3238 3240 3241 3242 3243 3244 3245 3245 3245 3246 3247 3248 3248 3249 3250 3250 3250 3251 3251 3251 3251 3251 3251 3252 3252 3252 3252 3252 3252 3252 3252 3252 3251 3251 3250 3250 3249 3248 3246 3245 3243 3241 3238 3236 3235 3235 3234 3233 3232 3231 3230 3230 3228 3227 3225 3223 3221 3219 3217 3215 3213 3210 3208 3205 3203 3201 3199
3215 3217 3219 3220 3222 3223 3225 3225 3227 3228 3228 3230 3230 3231 3232 3233 3234 3236 3236 3238 3239 3240 3241 3242 3243 3244 3244 3245 3246 3246 3247 3248 3249 3249 3249 3250 3250 3250 3250 3250 3250 3251 3251 3251 3251 3251 3251 3251 3251 3250 3250 3249 3249 3248 3248 3246 3244 3242 3241 3239 3237 3236 3234 3233 3232 3231 3230 3229 3228 3227 3226 3225 3223 3222 3220 3217 3215 3212 3210 3208 3205 3203 3200 3198 3196
3213 3215 3217 3218 3220 3221 3223 3224 3225 3226 3227 3228 3229 3229 3230 3232 3233 3234 3234 3236 3237 3238 3240 3241 3241 3242 3243 3244 3244 3245 3246 3247 3247 3248 3248 3249 3249 3249 3249 3249 3249 3249 3249 3249 3249 3249 3249 3249 3249 3249 3248 3248 3248 3247 3246 3244 3242 3240 3238 3237 3235 3234 3234 3233 3231 3230 3229 3228 3226 3225 3224 3222 3221 3219 3217 3215 3212 3209 3207 3205 3202 3199 3197 3194 3192
3211 3213 3215 3216 3218 3219 3221 3222 3223 3225 3226 3227 3227 3228 3229 3230 3231 3232 3232 3233 3235 3236 3237 3239 3240 3240 3241 3242 3243 3243 3244 3245 3246 3246 3247 3247 3247 3247 3247 3247 3248 3248 3248 3248 3247 3247 3247 3246 3247 3247 3247 3246 3246 3245 3244 3242 3240 3238 3237 3235 3234 3233 3232 3232 3231 3229 3228 3226 3225 3223 3221 3219 3218 3216 3214 3212 3210 3207 3205 3202 3199 3196 3193 3191 3188
3209 3211 3213 3214 3215 3217 3219 3220 3222 3223 3224 3225 3226 3227 3227 3228 3229 3230 3230 3231 3233 3234 3235 3236 3237 3238 3239 3240 3241 3241 3242 3243 3244 3245 3245 3245 3245 3245 3246 3246 3246 3246 3246 3246 3246 3245 3245 3245 3245 3245 3245 3244 3243 3243 3241 3239 3237 3236 3235 3233 3232 3231 3230 3229 3229 3227 3225 3223 3221 3219 3218 3216 3214 3213 3211 3210 3208 3205 3203 3200 3196 3193 3190 3187 3184
3207 3209 3211 3212 3214 3215 3217 3219 3220 3221 3222 3223 3224 3225 3226 3226 3227 3228 3229 3229 3230 3231 3233 3234 3235 3236 3237 3238 3239 3240 3240 3241 3242 3242 3243 3243 3244 3244 3244 3244 3244 3244 3244 3244 3244 3244 3243 3243 3243 3243 3243 3242 3241 3240 3239 3237 3235 3234 3233 3231 3230 3229 3228 3226 3225 3224 3223 3220 3218 3216 3215 3213 3212 3210 3209 3208 3206 3203 3200 3197 3194 3190 3187 3183 3180
3205 3207 3209 3210 3212 3213 3215 3217 3218 3219 3220 3221 3222 3223 3224 3225 3225 3227 3227 3228 3228 3229 3230 3231 3232 3234 3235 3236 3237 3238 3238 3239 3240 3240 3241 3242 3242 3242 3242 3242 3242 3243 3243 3242 3242 3242 3241 3241 3242 3241 3241 3240 3239 3239 3237 3234 3232 3231 3231 3229 3228 3227 3225 3223 3222 3221 3220 3218 3216 3214 3212 3211 3210 3209 3207 3205 3203 3200 3197 3194 3191 3187 3183 3179 3175
3203 3204 3206 3208 3209 3211 3212 3214 3216 3217 3218 3219 3220 3221 3223 3223 3224 3225 3226 3226 3226 3227 3228 3229 3230 3231 3233 3234 3235 3235 3236 3237 3238 3238 3239 3239 3240 3241 3241 3241 3241 3241 3241 3241 3241 3240 3240 3240 3240 3239 3239 3239 3238 3236 3235 3232 3229 3228 3228 3227 3226 3225 3223 3221 3220 3219 3217 3216 3215 3213 3211 3209 3207 3206 3205 3202 3200 3197 3193 3190 3186 3182 3179 3175 3171
3200 3202 3204 3205 3207 3208 3210 3212 3213 3214 3215 3217 3218 3220 3221 3222 3223 3223 3224 3225 3225 3225 3226 3227 3228 3229 3230 3231 3232 3233 3234 3235 3236 3236 3237 3237 3238 3239 3239 3239 3239 3239 3239 3239 3239 3239 3239 3238 3238 3238 3238 3237 3236 3234 3233 3230 3228 3226 3225 3224 3223 3223 3221 3219 3218 3216 3215 3213 3212 3210 3209 3207 3204 3202 3201 3199 3196 3193 3189 3184 3180 3176 3173 3170 3167
3198 3199 3201 3202 3204 3206 3207 3209 3210 3212 3213 3214 3216 3218 3219 3220 3221 3222 3222 3223 3223 3223 3224 3225 3225 3227 3228 3229 3230 3231 3232 3233 3234 3234 3235 3235 3236 3237 3238 3237 3237 3237 3237 3237 3237 3237 3237 3236 3237 3236 3236 3235 3234 3233 3231 3229 3227 3225 3224 3222 3221 3220 3219 3217 3215 3214 3212 3210 3207 3206 3206 3204 3200 3197 3196 3194 3192 3191 3188 3183 3177 3172 3168 3165 3163
3195 3197 3198 3200 3201 3203 3204 3206 3207 3209 3210 3211 3213 3216 3217 3218 3219 3220 3220 3221 3221 3222 3222 3223 3223 3224 3226 3227 3228 3229 3230 3231 3232 3232 3233 3233 3234 3235 3236 3235 3235 3235 3235 3235 3235 3235 3235 3235 3235 3235 3234 3233 3232 3231 3229 3227 3225 3223 3222 3220 3218 3217 3216 3214 3212 3211 3210 3207 3203 3201 3201 3200 3196 3192 3190 3188 3185 3184 3183 3179 3175 3171 3167 3162 3159
3192 3194 3195 3197 3199 3200 3202 3203 3205 3206 3207 3209 3211 3213 3215 3216 3217 3217 3218 3219 3219 3220 3220 3221 3221 3222 3223 3224 3226 3227 3228 3229 3230 3230 3231 3231 3232 3233 3233 3233 3233 3233 3233 3234 3234 3234 3233 3233 3233 3233 3232 3230 3229 3228 3227 3225 3224 3222 3220 3218 3216 3214 3212 3211 3210 3209 3208 3205 3201 3199 3198 3197 3193 3188 3185 3183 3179 3176 3174 3171 3169 3166 3164 3161 3157
3189 3191 3192 3194 3196 3197 3199 3200 3202 3204 3205 3206 3208 3210 3212 3213 3214 3215 3216 3216 3217 3218 3218 3219 3219 3220 3221 3222 3223 3224 3226 3227 3228 3229 3229 3229 3229 3230 3231 3231 3231 3231 3231 3231 3232 3232 3232 3231 3230 3230 3230 3228 3226 3226 3225 3223 3222 3220 3218 3216 3214 3212 3209 3207 3206 3206 3206 3204 3200 3196 3194 3193 3190 3185 3182 3179 3176 3173 3169 3166 3164 3162 3159 3157 3154
3185 3187 3189 3191 3193 3195 3196 3197 3199 3201 3203 3203 3205 3208 3210 3211 3212 3212 3213 3213 3214 3215 3216 3217 3217 3218 3219 3220 3221 3222 3223 3225 3226 3227 3227 3227 3227 3227 3228 3229 3229 3229 3229 3229 3230 3230 3229 3229 3228 3227 3227 3226 3225 3224 3222 3221 3220 3218 3216 3214 3212 3209 3206 3204 3202 3201 3201 3201 3198 3193 3190 3189 3186 3182 3179 3176 3173 3170 3166 3162 3159 3157 3153 3151 3149
3182 3184 3186 3188 3189 3191 3193 3195 3196 3198 3200 3201 3202 3205 3207 3208 3209 3209 3210 3210 3211 3212 3214 3215 3215 3216 3217 3218 3219 3220 3221 3222 3224 3225 3225 3225 3225 3224 3225 3226 3226 3227 3227 3227 3227 3228 3227 3227 3225 3224 3224 3224 3223 3222 3220 3218 3217 3215 3213 3212 3210 3207 3204 3202 3200 3197 3196 3196 3195 3191 3187 3185 3183 3179 3176 3173 3169 3166 3163 3159 3154 3150 3147 3144 3143
3179 3181 3183 3185 3186 3188 3190 3192 3193 3195 3196 3198 3200 3202 3204 3206 3206 3206 3207 3208 3208 3210 3211 3212 3213 3214 3214 3215 3216 3217 3218 3220 3221 3223 3223 3223 3223 3222 3222 3223 3224 3224 3224 3224 3224 3224 3224 3224 3223 3222 3222 3221 3220 3219 3217 3216 3214 3212 3210 3208 3207 3204 3202 3201 3200 3197 3194 3192 3191 3188 3185 3182 3180 3176 3172 3170 3167 3163 3160 3157 3152 3146 3142 3140 3138
3176 3178 3180 3182 3184 3185 3187 3189 3190 3192 3193 3195 3197 3199 3201 3202 3203 3204 3204 3205 3205 3206 3208 3209 3210 3210 3211 3212 3214 3214 3216 3217 3219 3220 3221 3221 3221 3220 3220 3220 3221 3221 3222 3222 3222 3221 3221 3220 3220 3220 3219 3218 3217 3216 3214 3213 3211 3209 3207 3205 3203 3202 3199 3198 3197 3196 3194 3190 3187 3186 3184 3181 3178 3174 3169 3166 3166 3163 3157 3153 3149 3145 3140 3137 3134
3174 3175 3177 3179 3180 3182 3184 3185 3187 3189 3190 3192 3193 3195 3197 3199 3200 3201 3201 3202 3202 3203 3205 3206 3207 3207 3208 3209 3211 3212 3213 3214 3216 3217 3218 3219 3218 3218 3218 3218 3218 3218 3219 3219 3219 3218 3218 3217 3216 3215 3215 3215 3214 3213 3212 3210 3209 3207 3204 3202 3201 3199 3196 3195 3193 3193 3192 3190 3186 3183 3182 3179 3176 3173 3167 3161 3159 3158 3156 3151 3146 3143 3139 3135 3132